Index of /20260428/WXO-DD/model_rdps/10km/18/008
Name Last modified Size Description
Parent Directory -
20260428T18Z_MSC_RDPS_AbsoluteVorticity_IsbL-0250_RLatLon0.09_PT008H.grib2 2026-04-28 20:42 634K
20260428T18Z_MSC_RDPS_AbsoluteVorticity_IsbL-0500_RLatLon0.09_PT008H.grib2 2026-04-28 20:42 575K
20260428T18Z_MSC_RDPS_AbsoluteVorticity_IsbL-0700_RLatLon0.09_PT008H.grib2 2026-04-28 20:42 619K
20260428T18Z_MSC_RDPS_AbsoluteVorticity_IsbL-0850_RLatLon0.09_PT008H.grib2 2026-04-28 20:42 768K
20260428T18Z_MSC_RDPS_AirTemp_AGL-120m_RLatLon0.09_PT008H.grib2 2026-04-28 20:42 381K
20260428T18Z_MSC_RDPS_AirTemp_AGL-2m_RLatLon0.09_PT008H.grib2 2026-04-28 20:42 615K
20260428T18Z_MSC_RDPS_AirTemp_AGL-40m_RLatLon0.09_PT008H.grib2 2026-04-28 20:42 391K
20260428T18Z_MSC_RDPS_AirTemp_AGL-80m_RLatLon0.09_PT008H.grib2 2026-04-28 20:42 385K
20260428T18Z_MSC_RDPS_AirTemp_IsbL-0001_RLatLon0.09_PT008H.grib2 2026-04-28 20:42 256K
20260428T18Z_MSC_RDPS_AirTemp_IsbL-0005_RLatLon0.09_PT008H.grib2 2026-04-28 20:42 289K
20260428T18Z_MSC_RDPS_AirTemp_IsbL-0010_RLatLon0.09_PT008H.grib2 2026-04-28 20:42 298K
20260428T18Z_MSC_RDPS_AirTemp_IsbL-0020_RLatLon0.09_PT008H.grib2 2026-04-28 20:42 310K
20260428T18Z_MSC_RDPS_AirTemp_IsbL-0030_RLatLon0.09_PT008H.grib2 2026-04-28 20:42 330K
20260428T18Z_MSC_RDPS_AirTemp_IsbL-0050_RLatLon0.09_PT008H.grib2 2026-04-28 20:42 310K
20260428T18Z_MSC_RDPS_AirTemp_IsbL-0100_RLatLon0.09_PT008H.grib2 2026-04-28 20:42 427K
20260428T18Z_MSC_RDPS_AirTemp_IsbL-0150_RLatLon0.09_PT008H.grib2 2026-04-28 20:42 457K
20260428T18Z_MSC_RDPS_AirTemp_IsbL-0175_RLatLon0.09_PT008H.grib2 2026-04-28 20:42 422K
20260428T18Z_MSC_RDPS_AirTemp_IsbL-0200_RLatLon0.09_PT008H.grib2 2026-04-28 20:42 424K
20260428T18Z_MSC_RDPS_AirTemp_IsbL-0225_RLatLon0.09_PT008H.grib2 2026-04-28 20:42 427K
20260428T18Z_MSC_RDPS_AirTemp_IsbL-0250_RLatLon0.09_PT008H.grib2 2026-04-28 20:42 435K
20260428T18Z_MSC_RDPS_AirTemp_IsbL-0275_RLatLon0.09_PT008H.grib2 2026-04-28 20:42 416K
20260428T18Z_MSC_RDPS_AirTemp_IsbL-0300_RLatLon0.09_PT008H.grib2 2026-04-28 20:42 422K
20260428T18Z_MSC_RDPS_AirTemp_IsbL-0350_RLatLon0.09_PT008H.grib2 2026-04-28 20:42 434K
20260428T18Z_MSC_RDPS_AirTemp_IsbL-0400_RLatLon0.09_PT008H.grib2 2026-04-28 20:42 435K
20260428T18Z_MSC_RDPS_AirTemp_IsbL-0450_RLatLon0.09_PT008H.grib2 2026-04-28 20:42 407K
20260428T18Z_MSC_RDPS_AirTemp_IsbL-0500_RLatLon0.09_PT008H.grib2 2026-04-28 20:42 417K
20260428T18Z_MSC_RDPS_AirTemp_IsbL-0550_RLatLon0.09_PT008H.grib2 2026-04-28 20:42 432K
20260428T18Z_MSC_RDPS_AirTemp_IsbL-0600_RLatLon0.09_PT008H.grib2 2026-04-28 20:42 450K
20260428T18Z_MSC_RDPS_AirTemp_IsbL-0650_RLatLon0.09_PT008H.grib2 2026-04-28 20:42 463K
20260428T18Z_MSC_RDPS_AirTemp_IsbL-0700_RLatLon0.09_PT008H.grib2 2026-04-28 20:42 378K
20260428T18Z_MSC_RDPS_AirTemp_IsbL-0750_RLatLon0.09_PT008H.grib2 2026-04-28 20:42 408K
20260428T18Z_MSC_RDPS_AirTemp_IsbL-0800_RLatLon0.09_PT008H.grib2 2026-04-28 20:42 446K
20260428T18Z_MSC_RDPS_AirTemp_IsbL-0850_RLatLon0.09_PT008H.grib2 2026-04-28 20:42 491K
20260428T18Z_MSC_RDPS_AirTemp_IsbL-0875_RLatLon0.09_PT008H.grib2 2026-04-28 20:42 508K
20260428T18Z_MSC_RDPS_AirTemp_IsbL-0900_RLatLon0.09_PT008H.grib2 2026-04-28 20:42 514K
20260428T18Z_MSC_RDPS_AirTemp_IsbL-0925_RLatLon0.09_PT008H.grib2 2026-04-28 20:42 513K
20260428T18Z_MSC_RDPS_AirTemp_IsbL-0950_RLatLon0.09_PT008H.grib2 2026-04-28 20:42 516K
20260428T18Z_MSC_RDPS_AirTemp_IsbL-0970_RLatLon0.09_PT008H.grib2 2026-04-28 20:42 507K
20260428T18Z_MSC_RDPS_AirTemp_IsbL-0985_RLatLon0.09_PT008H.grib2 2026-04-28 20:42 495K
20260428T18Z_MSC_RDPS_AirTemp_IsbL-1000_RLatLon0.09_PT008H.grib2 2026-04-28 20:42 477K
20260428T18Z_MSC_RDPS_AirTemp_IsbL-1015_RLatLon0.09_PT008H.grib2 2026-04-28 20:42 492K
20260428T18Z_MSC_RDPS_Albedo_Sfc_RLatLon0.09_PT008H.grib2 2026-04-28 20:42 164K
20260428T18Z_MSC_RDPS_CAPE_Sfc_RLatLon0.09_PT008H.grib2 2026-04-28 20:42 1.6M
20260428T18Z_MSC_RDPS_CIN_Sfc_RLatLon0.09_PT008H.grib2 2026-04-28 20:42 1.2M
20260428T18Z_MSC_RDPS_CloudWater_EAtm_RLatLon0.09_PT008H.grib2 2026-04-28 20:42 219K
20260428T18Z_MSC_RDPS_ConvectivePrecip-Accum_Sfc_RLatLon0.09_PT008H.grib2 2026-04-28 20:42 576K
20260428T18Z_MSC_RDPS_DewPointDepression_AGL-2m_RLatLon0.09_PT008H.grib2 2026-04-28 20:42 397K
20260428T18Z_MSC_RDPS_DewPointDepression_IsbL-0001_RLatLon0.09_PT008H.grib2 2026-04-28 20:42 193
20260428T18Z_MSC_RDPS_DewPointDepression_IsbL-0005_RLatLon0.09_PT008H.grib2 2026-04-28 20:42 193
20260428T18Z_MSC_RDPS_DewPointDepression_IsbL-0010_RLatLon0.09_PT008H.grib2 2026-04-28 20:42 193
20260428T18Z_MSC_RDPS_DewPointDepression_IsbL-0020_RLatLon0.09_PT008H.grib2 2026-04-28 20:42 193
20260428T18Z_MSC_RDPS_DewPointDepression_IsbL-0030_RLatLon0.09_PT008H.grib2 2026-04-28 20:42 193
20260428T18Z_MSC_RDPS_DewPointDepression_IsbL-0050_RLatLon0.09_PT008H.grib2 2026-04-28 20:42 95K
20260428T18Z_MSC_RDPS_DewPointDepression_IsbL-0100_RLatLon0.09_PT008H.grib2 2026-04-28 20:42 133K
20260428T18Z_MSC_RDPS_DewPointDepression_IsbL-0150_RLatLon0.09_PT008H.grib2 2026-04-28 20:42 160K
20260428T18Z_MSC_RDPS_DewPointDepression_IsbL-0175_RLatLon0.09_PT008H.grib2 2026-04-28 20:42 188K
20260428T18Z_MSC_RDPS_DewPointDepression_IsbL-0200_RLatLon0.09_PT008H.grib2 2026-04-28 20:42 224K
20260428T18Z_MSC_RDPS_DewPointDepression_IsbL-0225_RLatLon0.09_PT008H.grib2 2026-04-28 20:42 270K
20260428T18Z_MSC_RDPS_DewPointDepression_IsbL-0250_RLatLon0.09_PT008H.grib2 2026-04-28 20:42 310K
20260428T18Z_MSC_RDPS_DewPointDepression_IsbL-0275_RLatLon0.09_PT008H.grib2 2026-04-28 20:42 314K
20260428T18Z_MSC_RDPS_DewPointDepression_IsbL-0300_RLatLon0.09_PT008H.grib2 2026-04-28 20:42 333K
20260428T18Z_MSC_RDPS_DewPointDepression_IsbL-0350_RLatLon0.09_PT008H.grib2 2026-04-28 20:42 340K
20260428T18Z_MSC_RDPS_DewPointDepression_IsbL-0400_RLatLon0.09_PT008H.grib2 2026-04-28 20:42 349K
20260428T18Z_MSC_RDPS_DewPointDepression_IsbL-0450_RLatLon0.09_PT008H.grib2 2026-04-28 20:42 358K
20260428T18Z_MSC_RDPS_DewPointDepression_IsbL-0500_RLatLon0.09_PT008H.grib2 2026-04-28 20:42 362K
20260428T18Z_MSC_RDPS_DewPointDepression_IsbL-0550_RLatLon0.09_PT008H.grib2 2026-04-28 20:42 371K
20260428T18Z_MSC_RDPS_DewPointDepression_IsbL-0600_RLatLon0.09_PT008H.grib2 2026-04-28 20:42 379K
20260428T18Z_MSC_RDPS_DewPointDepression_IsbL-0650_RLatLon0.09_PT008H.grib2 2026-04-28 20:42 382K
20260428T18Z_MSC_RDPS_DewPointDepression_IsbL-0700_RLatLon0.09_PT008H.grib2 2026-04-28 20:42 396K
20260428T18Z_MSC_RDPS_DewPointDepression_IsbL-0750_RLatLon0.09_PT008H.grib2 2026-04-28 20:42 414K
20260428T18Z_MSC_RDPS_DewPointDepression_IsbL-0800_RLatLon0.09_PT008H.grib2 2026-04-28 20:42 441K
20260428T18Z_MSC_RDPS_DewPointDepression_IsbL-0850_RLatLon0.09_PT008H.grib2 2026-04-28 20:42 462K
20260428T18Z_MSC_RDPS_DewPointDepression_IsbL-0875_RLatLon0.09_PT008H.grib2 2026-04-28 20:42 463K
20260428T18Z_MSC_RDPS_DewPointDepression_IsbL-0900_RLatLon0.09_PT008H.grib2 2026-04-28 20:42 457K
20260428T18Z_MSC_RDPS_DewPointDepression_IsbL-0925_RLatLon0.09_PT008H.grib2 2026-04-28 20:42 448K
20260428T18Z_MSC_RDPS_DewPointDepression_IsbL-0950_RLatLon0.09_PT008H.grib2 2026-04-28 20:42 441K
20260428T18Z_MSC_RDPS_DewPointDepression_IsbL-0970_RLatLon0.09_PT008H.grib2 2026-04-28 20:42 428K
20260428T18Z_MSC_RDPS_DewPointDepression_IsbL-0985_RLatLon0.09_PT008H.grib2 2026-04-28 20:42 420K
20260428T18Z_MSC_RDPS_DewPointDepression_IsbL-1000_RLatLon0.09_PT008H.grib2 2026-04-28 20:42 413K
20260428T18Z_MSC_RDPS_DewPointDepression_IsbL-1015_RLatLon0.09_PT008H.grib2 2026-04-28 20:42 405K
20260428T18Z_MSC_RDPS_DewPoint_AGL-2m_RLatLon0.09_PT008H.grib2 2026-04-28 20:42 302K
20260428T18Z_MSC_RDPS_DownwardLongwaveRadiationFlux-Accum_Sfc_RLatLon0.09_PT008H.grib2 2026-04-28 20:42 415K
20260428T18Z_MSC_RDPS_DownwardShortwaveRadiationFlux-Accum_NTAtm_RLatLon0.09_PT008H.grib2 2026-04-28 20:42 120K
20260428T18Z_MSC_RDPS_DownwardShortwaveRadiationFlux-Accum_Sfc_RLatLon0.09_PT008H.grib2 2026-04-28 20:42 486K
20260428T18Z_MSC_RDPS_FreezingRain-Accum1h_Sfc_RLatLon0.09_PT008H.grib2 2026-04-28 20:42 17K
20260428T18Z_MSC_RDPS_FreezingRain-Accum_Sfc_RLatLon0.09_PT008H.grib2 2026-04-28 20:42 35K
20260428T18Z_MSC_RDPS_GeopotentialHeight_IsbL-0001_RLatLon0.09_PT008H.grib2 2026-04-28 20:42 271K
20260428T18Z_MSC_RDPS_GeopotentialHeight_IsbL-0005_RLatLon0.09_PT008H.grib2 2026-04-28 20:42 336K
20260428T18Z_MSC_RDPS_GeopotentialHeight_IsbL-0010_RLatLon0.09_PT008H.grib2 2026-04-28 20:42 336K
20260428T18Z_MSC_RDPS_GeopotentialHeight_IsbL-0020_RLatLon0.09_PT008H.grib2 2026-04-28 20:42 301K
20260428T18Z_MSC_RDPS_GeopotentialHeight_IsbL-0030_RLatLon0.09_PT008H.grib2 2026-04-28 20:42 303K
20260428T18Z_MSC_RDPS_GeopotentialHeight_IsbL-0050_RLatLon0.09_PT008H.grib2 2026-04-28 20:42 339K
20260428T18Z_MSC_RDPS_GeopotentialHeight_IsbL-0100_RLatLon0.09_PT008H.grib2 2026-04-28 20:42 288K
20260428T18Z_MSC_RDPS_GeopotentialHeight_IsbL-0150_RLatLon0.09_PT008H.grib2 2026-04-28 20:42 231K
20260428T18Z_MSC_RDPS_GeopotentialHeight_IsbL-0175_RLatLon0.09_PT008H.grib2 2026-04-28 20:42 265K
20260428T18Z_MSC_RDPS_GeopotentialHeight_IsbL-0200_RLatLon0.09_PT008H.grib2 2026-04-28 20:42 269K
20260428T18Z_MSC_RDPS_GeopotentialHeight_IsbL-0225_RLatLon0.09_PT008H.grib2 2026-04-28 20:42 269K
20260428T18Z_MSC_RDPS_GeopotentialHeight_IsbL-0250_RLatLon0.09_PT008H.grib2 2026-04-28 20:42 270K
20260428T18Z_MSC_RDPS_GeopotentialHeight_IsbL-0275_RLatLon0.09_PT008H.grib2 2026-04-28 20:42 268K
20260428T18Z_MSC_RDPS_GeopotentialHeight_IsbL-0300_RLatLon0.09_PT008H.grib2 2026-04-28 20:42 268K
20260428T18Z_MSC_RDPS_GeopotentialHeight_IsbL-0350_RLatLon0.09_PT008H.grib2 2026-04-28 20:42 234K
20260428T18Z_MSC_RDPS_GeopotentialHeight_IsbL-0400_RLatLon0.09_PT008H.grib2 2026-04-28 20:42 231K
20260428T18Z_MSC_RDPS_GeopotentialHeight_IsbL-0450_RLatLon0.09_PT008H.grib2 2026-04-28 20:42 227K
20260428T18Z_MSC_RDPS_GeopotentialHeight_IsbL-0500_RLatLon0.09_PT008H.grib2 2026-04-28 20:42 294K
20260428T18Z_MSC_RDPS_GeopotentialHeight_IsbL-0550_RLatLon0.09_PT008H.grib2 2026-04-28 20:42 291K
20260428T18Z_MSC_RDPS_GeopotentialHeight_IsbL-0600_RLatLon0.09_PT008H.grib2 2026-04-28 20:42 288K
20260428T18Z_MSC_RDPS_GeopotentialHeight_IsbL-0650_RLatLon0.09_PT008H.grib2 2026-04-28 20:42 257K
20260428T18Z_MSC_RDPS_GeopotentialHeight_IsbL-0700_RLatLon0.09_PT008H.grib2 2026-04-28 20:42 254K
20260428T18Z_MSC_RDPS_GeopotentialHeight_IsbL-0750_RLatLon0.09_PT008H.grib2 2026-04-28 20:42 337K
20260428T18Z_MSC_RDPS_GeopotentialHeight_IsbL-0800_RLatLon0.09_PT008H.grib2 2026-04-28 20:42 343K
20260428T18Z_MSC_RDPS_GeopotentialHeight_IsbL-0850_RLatLon0.09_PT008H.grib2 2026-04-28 20:42 351K
20260428T18Z_MSC_RDPS_GeopotentialHeight_IsbL-0875_RLatLon0.09_PT008H.grib2 2026-04-28 20:42 352K
20260428T18Z_MSC_RDPS_GeopotentialHeight_IsbL-0900_RLatLon0.09_PT008H.grib2 2026-04-28 20:42 357K
20260428T18Z_MSC_RDPS_GeopotentialHeight_IsbL-0925_RLatLon0.09_PT008H.grib2 2026-04-28 20:42 359K
20260428T18Z_MSC_RDPS_GeopotentialHeight_IsbL-0950_RLatLon0.09_PT008H.grib2 2026-04-28 20:42 364K
20260428T18Z_MSC_RDPS_GeopotentialHeight_IsbL-0970_RLatLon0.09_PT008H.grib2 2026-04-28 20:42 370K
20260428T18Z_MSC_RDPS_GeopotentialHeight_IsbL-0985_RLatLon0.09_PT008H.grib2 2026-04-28 20:42 378K
20260428T18Z_MSC_RDPS_GeopotentialHeight_IsbL-1000_RLatLon0.09_PT008H.grib2 2026-04-28 20:42 388K
20260428T18Z_MSC_RDPS_GeopotentialHeight_IsbL-1015_RLatLon0.09_PT008H.grib2 2026-04-28 20:42 401K
20260428T18Z_MSC_RDPS_Humidex_Sfc_RLatLon0.09_PT008H.grib2 2026-04-28 20:42 2.4M
20260428T18Z_MSC_RDPS_IcePellets-Accum1h_Sfc_RLatLon0.09_PT008H.grib2 2026-04-28 20:42 4.1K
20260428T18Z_MSC_RDPS_IcePellets-Accum_Sfc_RLatLon0.09_PT008H.grib2 2026-04-28 20:42 8.7K
20260428T18Z_MSC_RDPS_KIndex_Sfc_RLatLon0.09_PT008H.grib2 2026-04-28 20:42 2.4M
20260428T18Z_MSC_RDPS_LatentHeatNetFlux_Sfc_RLatLon0.09_PT008H.grib2 2026-04-28 20:42 412K
20260428T18Z_MSC_RDPS_LiftedIndex-MU-VT_IsbL-0500_RLatLon0.09_PT008H.grib2 2026-04-28 20:42 2.4M
20260428T18Z_MSC_RDPS_NetLongwaveRadiationFlux-Accum_Sfc_RLatLon0.09_PT008H.grib2 2026-04-28 20:42 555K
20260428T18Z_MSC_RDPS_NetShortwaveRadiationFlux-Accum_Sfc_RLatLon0.09_PT008H.grib2 2026-04-28 20:42 476K
20260428T18Z_MSC_RDPS_PlanetaryBoundaryLayerHeight_Sfc_RLatLon0.09_PT008H.grib2 2026-04-28 20:42 1.1M
20260428T18Z_MSC_RDPS_Precip-Accum1h_Sfc_RLatLon0.09_PT008H.grib2 2026-04-28 20:42 1.0M
20260428T18Z_MSC_RDPS_Precip-Accum_Sfc_RLatLon0.09_PT008H.grib2 2026-04-28 20:42 1.5M
20260428T18Z_MSC_RDPS_PrecipRate_Sfc_RLatLon0.09_PT008H.grib2 2026-04-28 20:42 156K
20260428T18Z_MSC_RDPS_PrecipType-Instant_Sfc_RLatLon0.09_PT008H.grib2 2026-04-28 20:42 524K
20260428T18Z_MSC_RDPS_Pressure-Trend3h_Sfc_RLatLon0.09_PT008H.grib2 2026-04-28 20:42 1.2M
20260428T18Z_MSC_RDPS_Pressure_MSL_RLatLon0.09_PT008H.grib2 2026-04-28 20:42 324K
20260428T18Z_MSC_RDPS_Pressure_PVU-1.5_RLatLon0.09_PT008H.grib2 2026-04-28 20:42 2.3M
20260428T18Z_MSC_RDPS_Pressure_PVU-1_RLatLon0.09_PT008H.grib2 2026-04-28 20:42 2.4M
20260428T18Z_MSC_RDPS_Pressure_PVU-2_RLatLon0.09_PT008H.grib2 2026-04-28 20:42 2.4M
20260428T18Z_MSC_RDPS_Pressure_Sfc_RLatLon0.09_PT008H.grib2 2026-04-28 20:42 499K
20260428T18Z_MSC_RDPS_RadiativeTemp_Sfc_RLatLon0.09_PT008H.grib2 2026-04-28 20:42 301K
20260428T18Z_MSC_RDPS_Rain-Accum1h_Sfc_RLatLon0.09_PT008H.grib2 2026-04-28 20:42 472K
20260428T18Z_MSC_RDPS_Rain-Accum_Sfc_RLatLon0.09_PT008H.grib2 2026-04-28 20:42 1.1M
20260428T18Z_MSC_RDPS_RelativeHumidity_AGL-2m_RLatLon0.09_PT008H.grib2 2026-04-28 20:42 1.0M
20260428T18Z_MSC_RDPS_RelativeHumidity_IsbL-0010_RLatLon0.09_PT008H.grib2 2026-04-28 20:42 618K
20260428T18Z_MSC_RDPS_RelativeHumidity_IsbL-0020_RLatLon0.09_PT008H.grib2 2026-04-28 20:42 647K
20260428T18Z_MSC_RDPS_RelativeHumidity_IsbL-0030_RLatLon0.09_PT008H.grib2 2026-04-28 20:42 605K
20260428T18Z_MSC_RDPS_RelativeHumidity_IsbL-0050_RLatLon0.09_PT008H.grib2 2026-04-28 20:42 246K
20260428T18Z_MSC_RDPS_RelativeHumidity_IsbL-0100_RLatLon0.09_PT008H.grib2 2026-04-28 20:42 280K
20260428T18Z_MSC_RDPS_RelativeHumidity_IsbL-0150_RLatLon0.09_PT008H.grib2 2026-04-28 20:42 426K
20260428T18Z_MSC_RDPS_RelativeHumidity_IsbL-0175_RLatLon0.09_PT008H.grib2 2026-04-28 20:42 497K
20260428T18Z_MSC_RDPS_RelativeHumidity_IsbL-0200_RLatLon0.09_PT008H.grib2 2026-04-28 20:42 563K
20260428T18Z_MSC_RDPS_RelativeHumidity_IsbL-0225_RLatLon0.09_PT008H.grib2 2026-04-28 20:42 627K
20260428T18Z_MSC_RDPS_RelativeHumidity_IsbL-0250_RLatLon0.09_PT008H.grib2 2026-04-28 20:42 693K
20260428T18Z_MSC_RDPS_RelativeHumidity_IsbL-0275_RLatLon0.09_PT008H.grib2 2026-04-28 20:42 724K
20260428T18Z_MSC_RDPS_RelativeHumidity_IsbL-0300_RLatLon0.09_PT008H.grib2 2026-04-28 20:42 768K
20260428T18Z_MSC_RDPS_RelativeHumidity_IsbL-0350_RLatLon0.09_PT008H.grib2 2026-04-28 20:42 788K
20260428T18Z_MSC_RDPS_RelativeHumidity_IsbL-0400_RLatLon0.09_PT008H.grib2 2026-04-28 20:42 798K
20260428T18Z_MSC_RDPS_RelativeHumidity_IsbL-0450_RLatLon0.09_PT008H.grib2 2026-04-28 20:42 804K
20260428T18Z_MSC_RDPS_RelativeHumidity_IsbL-0500_RLatLon0.09_PT008H.grib2 2026-04-28 20:42 820K
20260428T18Z_MSC_RDPS_RelativeHumidity_IsbL-0550_RLatLon0.09_PT008H.grib2 2026-04-28 20:42 835K
20260428T18Z_MSC_RDPS_RelativeHumidity_IsbL-0600_RLatLon0.09_PT008H.grib2 2026-04-28 20:42 853K
20260428T18Z_MSC_RDPS_RelativeHumidity_IsbL-0650_RLatLon0.09_PT008H.grib2 2026-04-28 20:42 861K
20260428T18Z_MSC_RDPS_RelativeHumidity_IsbL-0700_RLatLon0.09_PT008H.grib2 2026-04-28 20:42 885K
20260428T18Z_MSC_RDPS_RelativeHumidity_IsbL-0750_RLatLon0.09_PT008H.grib2 2026-04-28 20:42 923K
20260428T18Z_MSC_RDPS_RelativeHumidity_IsbL-0800_RLatLon0.09_PT008H.grib2 2026-04-28 20:42 1.0M
20260428T18Z_MSC_RDPS_RelativeHumidity_IsbL-0850_RLatLon0.09_PT008H.grib2 2026-04-28 20:42 1.0M
20260428T18Z_MSC_RDPS_RelativeHumidity_IsbL-0875_RLatLon0.09_PT008H.grib2 2026-04-28 20:42 1.0M
20260428T18Z_MSC_RDPS_RelativeHumidity_IsbL-0900_RLatLon0.09_PT008H.grib2 2026-04-28 20:42 1.1M
20260428T18Z_MSC_RDPS_RelativeHumidity_IsbL-0925_RLatLon0.09_PT008H.grib2 2026-04-28 20:42 1.1M
20260428T18Z_MSC_RDPS_RelativeHumidity_IsbL-0950_RLatLon0.09_PT008H.grib2 2026-04-28 20:42 1.1M
20260428T18Z_MSC_RDPS_RelativeHumidity_IsbL-0970_RLatLon0.09_PT008H.grib2 2026-04-28 20:42 1.0M
20260428T18Z_MSC_RDPS_RelativeHumidity_IsbL-0985_RLatLon0.09_PT008H.grib2 2026-04-28 20:42 1.0M
20260428T18Z_MSC_RDPS_RelativeHumidity_IsbL-1000_RLatLon0.09_PT008H.grib2 2026-04-28 20:42 1.0M
20260428T18Z_MSC_RDPS_RelativeHumidity_IsbL-1015_RLatLon0.09_PT008H.grib2 2026-04-28 20:42 1.0M
20260428T18Z_MSC_RDPS_Runoff-Accum_Sfc_RLatLon0.09_PT008H.grib2 2026-04-28 20:42 46K
20260428T18Z_MSC_RDPS_SWEATIndex_Sfc_RLatLon0.09_PT008H.grib2 2026-04-28 20:42 2.4M
20260428T18Z_MSC_RDPS_SeeingIndex_EAtm_RLatLon0.09_PT008H.grib2 2026-04-28 20:42 1.0M
20260428T18Z_MSC_RDPS_SensibleHeatNetFlux_Sfc_RLatLon0.09_PT008H.grib2 2026-04-28 20:42 291K
20260428T18Z_MSC_RDPS_ShowalterIndex_IsbL-0500_RLatLon0.09_PT008H.grib2 2026-04-28 20:42 2.6M
20260428T18Z_MSC_RDPS_SkyTransparencyIndex_EAtm_RLatLon0.09_PT008H.grib2 2026-04-28 20:42 692K
20260428T18Z_MSC_RDPS_Snow-Accum1h_Sfc_RLatLon0.09_PT008H.grib2 2026-04-28 20:42 519K
20260428T18Z_MSC_RDPS_Snow-Accum_Sfc_RLatLon0.09_PT008H.grib2 2026-04-28 20:42 623K
20260428T18Z_MSC_RDPS_SnowDensity_Sfc_RLatLon0.09_PT008H.grib2 2026-04-28 20:42 173K
20260428T18Z_MSC_RDPS_SnowDepth_Sfc_RLatLon0.09_PT008H.grib2 2026-04-28 20:42 689K
20260428T18Z_MSC_RDPS_SoilTemp_DBS-0to10cm_RLatLon0.09_PT008H.grib2 2026-04-28 20:42 210K
20260428T18Z_MSC_RDPS_SoilTemp_Sfc_RLatLon0.09_PT008H.grib2 2026-04-28 20:42 280K
20260428T18Z_MSC_RDPS_SoilVolumetricIceContent_Sfc_RLatLon0.09_PT008H.grib2 2026-04-28 20:42 166K
20260428T18Z_MSC_RDPS_SoilVolumetricWaterContent_DBS-0to10cm_RLatLon0.09_PT008H.grib2 2026-04-28 20:42 263K
20260428T18Z_MSC_RDPS_SoilVolumetricWaterContent_DBS-0to1cm_RLatLon0.09_PT008H.grib2 2026-04-28 20:42 332K
20260428T18Z_MSC_RDPS_SpecificHumidity_AGL-120m_RLatLon0.09_PT008H.grib2 2026-04-28 20:42 473K
20260428T18Z_MSC_RDPS_SpecificHumidity_AGL-2m_RLatLon0.09_PT008H.grib2 2026-04-28 20:42 637K
20260428T18Z_MSC_RDPS_SpecificHumidity_AGL-40m_RLatLon0.09_PT008H.grib2 2026-04-28 20:42 478K
20260428T18Z_MSC_RDPS_SpecificHumidity_AGL-80m_RLatLon0.09_PT008H.grib2 2026-04-28 20:42 473K
20260428T18Z_MSC_RDPS_SpecificHumidity_IsbL-0001_RLatLon0.09_PT008H.grib2 2026-04-28 20:42 380K
20260428T18Z_MSC_RDPS_SpecificHumidity_IsbL-0005_RLatLon0.09_PT008H.grib2 2026-04-28 20:42 356K
20260428T18Z_MSC_RDPS_SpecificHumidity_IsbL-0010_RLatLon0.09_PT008H.grib2 2026-04-28 20:42 393K
20260428T18Z_MSC_RDPS_SpecificHumidity_IsbL-0020_RLatLon0.09_PT008H.grib2 2026-04-28 20:42 386K
20260428T18Z_MSC_RDPS_SpecificHumidity_IsbL-0030_RLatLon0.09_PT008H.grib2 2026-04-28 20:42 371K
20260428T18Z_MSC_RDPS_SpecificHumidity_IsbL-0050_RLatLon0.09_PT008H.grib2 2026-04-28 20:42 461K
20260428T18Z_MSC_RDPS_SpecificHumidity_IsbL-0100_RLatLon0.09_PT008H.grib2 2026-04-28 20:42 349K
20260428T18Z_MSC_RDPS_SpecificHumidity_IsbL-0150_RLatLon0.09_PT008H.grib2 2026-04-28 20:42 462K
20260428T18Z_MSC_RDPS_SpecificHumidity_IsbL-0175_RLatLon0.09_PT008H.grib2 2026-04-28 20:42 454K
20260428T18Z_MSC_RDPS_SpecificHumidity_IsbL-0200_RLatLon0.09_PT008H.grib2 2026-04-28 20:42 463K
20260428T18Z_MSC_RDPS_SpecificHumidity_IsbL-0225_RLatLon0.09_PT008H.grib2 2026-04-28 20:42 462K
20260428T18Z_MSC_RDPS_SpecificHumidity_IsbL-0250_RLatLon0.09_PT008H.grib2 2026-04-28 20:42 520K
20260428T18Z_MSC_RDPS_SpecificHumidity_IsbL-0275_RLatLon0.09_PT008H.grib2 2026-04-28 20:42 480K
20260428T18Z_MSC_RDPS_SpecificHumidity_IsbL-0300_RLatLon0.09_PT008H.grib2 2026-04-28 20:42 453K
20260428T18Z_MSC_RDPS_SpecificHumidity_IsbL-0350_RLatLon0.09_PT008H.grib2 2026-04-28 20:42 574K
20260428T18Z_MSC_RDPS_SpecificHumidity_IsbL-0400_RLatLon0.09_PT008H.grib2 2026-04-28 20:42 528K
20260428T18Z_MSC_RDPS_SpecificHumidity_IsbL-0450_RLatLon0.09_PT008H.grib2 2026-04-28 20:42 581K
20260428T18Z_MSC_RDPS_SpecificHumidity_IsbL-0500_RLatLon0.09_PT008H.grib2 2026-04-28 20:42 516K
20260428T18Z_MSC_RDPS_SpecificHumidity_IsbL-0550_RLatLon0.09_PT008H.grib2 2026-04-28 20:42 588K
20260428T18Z_MSC_RDPS_SpecificHumidity_IsbL-0600_RLatLon0.09_PT008H.grib2 2026-04-28 20:42 638K
20260428T18Z_MSC_RDPS_SpecificHumidity_IsbL-0650_RLatLon0.09_PT008H.grib2 2026-04-28 20:42 554K
20260428T18Z_MSC_RDPS_SpecificHumidity_IsbL-0700_RLatLon0.09_PT008H.grib2 2026-04-28 20:42 596K
20260428T18Z_MSC_RDPS_SpecificHumidity_IsbL-0750_RLatLon0.09_PT008H.grib2 2026-04-28 20:42 661K
20260428T18Z_MSC_RDPS_SpecificHumidity_IsbL-0800_RLatLon0.09_PT008H.grib2 2026-04-28 20:42 724K
20260428T18Z_MSC_RDPS_SpecificHumidity_IsbL-0850_RLatLon0.09_PT008H.grib2 2026-04-28 20:42 791K
20260428T18Z_MSC_RDPS_SpecificHumidity_IsbL-0875_RLatLon0.09_PT008H.grib2 2026-04-28 20:42 815K
20260428T18Z_MSC_RDPS_SpecificHumidity_IsbL-0900_RLatLon0.09_PT008H.grib2 2026-04-28 20:42 829K
20260428T18Z_MSC_RDPS_SpecificHumidity_IsbL-0925_RLatLon0.09_PT008H.grib2 2026-04-28 20:42 833K
20260428T18Z_MSC_RDPS_SpecificHumidity_IsbL-0950_RLatLon0.09_PT008H.grib2 2026-04-28 20:42 833K
20260428T18Z_MSC_RDPS_SpecificHumidity_IsbL-0970_RLatLon0.09_PT008H.grib2 2026-04-28 20:42 679K
20260428T18Z_MSC_RDPS_SpecificHumidity_IsbL-0985_RLatLon0.09_PT008H.grib2 2026-04-28 20:42 668K
20260428T18Z_MSC_RDPS_SpecificHumidity_IsbL-1000_RLatLon0.09_PT008H.grib2 2026-04-28 20:42 658K
20260428T18Z_MSC_RDPS_SpecificHumidity_IsbL-1015_RLatLon0.09_PT008H.grib2 2026-04-28 20:42 650K
20260428T18Z_MSC_RDPS_SpecificHumidity_Sfc_RLatLon0.09_PT008H.grib2 2026-04-28 20:42 299K
20260428T18Z_MSC_RDPS_StormRelativeHelicity_EtaL-10000_RLatLon0.09_PT008H.grib2 2026-04-28 20:42 1.1M
20260428T18Z_MSC_RDPS_StormSeverityIndex_EtaL-10000_RLatLon0.09_PT008H.grib2 2026-04-28 20:42 1.1M
20260428T18Z_MSC_RDPS_Thickness_IsbL-0850to0700_RLatLon0.09_PT008H.grib2 2026-04-28 20:42 176K
20260428T18Z_MSC_RDPS_Thickness_IsbL-1000to0500_RLatLon0.09_PT008H.grib2 2026-04-28 20:42 199K
20260428T18Z_MSC_RDPS_Thickness_IsbL-1000to0850_RLatLon0.09_PT008H.grib2 2026-04-28 20:42 183K
20260428T18Z_MSC_RDPS_TotalCloudCover_Sfc_RLatLon0.09_PT008H.grib2 2026-04-28 20:42 641K
20260428T18Z_MSC_RDPS_TotalTotalsIndex_Sfc_RLatLon0.09_PT008H.grib2 2026-04-28 20:42 2.3M
20260428T18Z_MSC_RDPS_UVIndex-ClearSky_Sfc_RLatLon0.09_PT008H.grib2 2026-04-28 20:42 115K
20260428T18Z_MSC_RDPS_UVIndex_Sfc_RLatLon0.09_PT008H.grib2 2026-04-28 20:42 245K
20260428T18Z_MSC_RDPS_UpwardLongwaveRadiationFlux_NTAtm_RLatLon0.09_PT008H.grib2 2026-04-28 20:42 494K
20260428T18Z_MSC_RDPS_UpwardShortwaveRadiationFlux_NTAtm_RLatLon0.09_PT008H.grib2 2026-04-28 20:42 238K
20260428T18Z_MSC_RDPS_VerticalVelocity_IsbL-0250_RLatLon0.09_PT008H.grib2 2026-04-28 20:42 440K
20260428T18Z_MSC_RDPS_VerticalVelocity_IsbL-0500_RLatLon0.09_PT008H.grib2 2026-04-28 20:42 548K
20260428T18Z_MSC_RDPS_VerticalVelocity_IsbL-0700_RLatLon0.09_PT008H.grib2 2026-04-28 20:42 595K
20260428T18Z_MSC_RDPS_VerticalVelocity_IsbL-0850_RLatLon0.09_PT008H.grib2 2026-04-28 20:42 704K
20260428T18Z_MSC_RDPS_VerticalWindShear_EtaL-6500_RLatLon0.09_PT008H.grib2 2026-04-28 20:42 1.2M
20260428T18Z_MSC_RDPS_WindChill_Sfc_RLatLon0.09_PT008H.grib2 2026-04-28 20:42 1.1M
20260428T18Z_MSC_RDPS_WindDir_AGL-10m_RLatLon0.09_PT008H.grib2 2026-04-28 20:42 946K
20260428T18Z_MSC_RDPS_WindDir_AGL-120m_RLatLon0.09_PT008H.grib2 2026-04-28 20:42 593K
20260428T18Z_MSC_RDPS_WindDir_AGL-40m_RLatLon0.09_PT008H.grib2 2026-04-28 20:42 620K
20260428T18Z_MSC_RDPS_WindDir_AGL-80m_RLatLon0.09_PT008H.grib2 2026-04-28 20:42 603K
20260428T18Z_MSC_RDPS_WindDir_IsbL-0001_RLatLon0.09_PT008H.grib2 2026-04-28 20:42 304K
20260428T18Z_MSC_RDPS_WindDir_IsbL-0005_RLatLon0.09_PT008H.grib2 2026-04-28 20:42 362K
20260428T18Z_MSC_RDPS_WindDir_IsbL-0010_RLatLon0.09_PT008H.grib2 2026-04-28 20:42 385K
20260428T18Z_MSC_RDPS_WindDir_IsbL-0020_RLatLon0.09_PT008H.grib2 2026-04-28 20:42 408K
20260428T18Z_MSC_RDPS_WindDir_IsbL-0030_RLatLon0.09_PT008H.grib2 2026-04-28 20:42 410K
20260428T18Z_MSC_RDPS_WindDir_IsbL-0050_RLatLon0.09_PT008H.grib2 2026-04-28 20:42 412K
20260428T18Z_MSC_RDPS_WindDir_IsbL-0100_RLatLon0.09_PT008H.grib2 2026-04-28 20:42 416K
20260428T18Z_MSC_RDPS_WindDir_IsbL-0150_RLatLon0.09_PT008H.grib2 2026-04-28 20:42 421K
20260428T18Z_MSC_RDPS_WindDir_IsbL-0175_RLatLon0.09_PT008H.grib2 2026-04-28 20:42 439K
20260428T18Z_MSC_RDPS_WindDir_IsbL-0200_RLatLon0.09_PT008H.grib2 2026-04-28 20:42 446K
20260428T18Z_MSC_RDPS_WindDir_IsbL-0225_RLatLon0.09_PT008H.grib2 2026-04-28 20:42 449K
20260428T18Z_MSC_RDPS_WindDir_IsbL-0250_RLatLon0.09_PT008H.grib2 2026-04-28 20:42 455K
20260428T18Z_MSC_RDPS_WindDir_IsbL-0275_RLatLon0.09_PT008H.grib2 2026-04-28 20:42 479K
20260428T18Z_MSC_RDPS_WindDir_IsbL-0300_RLatLon0.09_PT008H.grib2 2026-04-28 20:42 477K
20260428T18Z_MSC_RDPS_WindDir_IsbL-0350_RLatLon0.09_PT008H.grib2 2026-04-28 20:42 500K
20260428T18Z_MSC_RDPS_WindDir_IsbL-0400_RLatLon0.09_PT008H.grib2 2026-04-28 20:42 517K
20260428T18Z_MSC_RDPS_WindDir_IsbL-0450_RLatLon0.09_PT008H.grib2 2026-04-28 20:42 534K
20260428T18Z_MSC_RDPS_WindDir_IsbL-0500_RLatLon0.09_PT008H.grib2 2026-04-28 20:42 552K
20260428T18Z_MSC_RDPS_WindDir_IsbL-0550_RLatLon0.09_PT008H.grib2 2026-04-28 20:42 567K
20260428T18Z_MSC_RDPS_WindDir_IsbL-0600_RLatLon0.09_PT008H.grib2 2026-04-28 20:42 594K
20260428T18Z_MSC_RDPS_WindDir_IsbL-0650_RLatLon0.09_PT008H.grib2 2026-04-28 20:42 632K
20260428T18Z_MSC_RDPS_WindDir_IsbL-0700_RLatLon0.09_PT008H.grib2 2026-04-28 20:42 674K
20260428T18Z_MSC_RDPS_WindDir_IsbL-0750_RLatLon0.09_PT008H.grib2 2026-04-28 20:42 718K
20260428T18Z_MSC_RDPS_WindDir_IsbL-0800_RLatLon0.09_PT008H.grib2 2026-04-28 20:42 781K
20260428T18Z_MSC_RDPS_WindDir_IsbL-0850_RLatLon0.09_PT008H.grib2 2026-04-28 20:42 849K
20260428T18Z_MSC_RDPS_WindDir_IsbL-0875_RLatLon0.09_PT008H.grib2 2026-04-28 20:42 874K
20260428T18Z_MSC_RDPS_WindDir_IsbL-0900_RLatLon0.09_PT008H.grib2 2026-04-28 20:42 891K
20260428T18Z_MSC_RDPS_WindDir_IsbL-0925_RLatLon0.09_PT008H.grib2 2026-04-28 20:42 899K
20260428T18Z_MSC_RDPS_WindDir_IsbL-0950_RLatLon0.09_PT008H.grib2 2026-04-28 20:42 900K
20260428T18Z_MSC_RDPS_WindDir_IsbL-0970_RLatLon0.09_PT008H.grib2 2026-04-28 20:42 905K
20260428T18Z_MSC_RDPS_WindDir_IsbL-0985_RLatLon0.09_PT008H.grib2 2026-04-28 20:42 911K
20260428T18Z_MSC_RDPS_WindDir_IsbL-1000_RLatLon0.09_PT008H.grib2 2026-04-28 20:42 922K
20260428T18Z_MSC_RDPS_WindDir_IsbL-1015_RLatLon0.09_PT008H.grib2 2026-04-28 20:42 938K
20260428T18Z_MSC_RDPS_WindGust-Max_AGL-10m_RLatLon0.09_PT008H.grib2 2026-04-28 20:42 944K
20260428T18Z_MSC_RDPS_WindGust-Min_AGL-10m_RLatLon0.09_PT008H.grib2 2026-04-28 20:42 966K
20260428T18Z_MSC_RDPS_WindGust_AGL-10m_RLatLon0.09_PT008H.grib2 2026-04-28 20:42 1.0M
20260428T18Z_MSC_RDPS_WindSpeed_AGL-10m_RLatLon0.09_PT008H.grib2 2026-04-28 20:42 824K
20260428T18Z_MSC_RDPS_WindSpeed_AGL-120m_RLatLon0.09_PT008H.grib2 2026-04-28 20:42 540K
20260428T18Z_MSC_RDPS_WindSpeed_AGL-40m_RLatLon0.09_PT008H.grib2 2026-04-28 20:42 532K
20260428T18Z_MSC_RDPS_WindSpeed_AGL-80m_RLatLon0.09_PT008H.grib2 2026-04-28 20:42 542K
20260428T18Z_MSC_RDPS_WindSpeed_IsbL-0001_RLatLon0.09_PT008H.grib2 2026-04-28 20:42 252K
20260428T18Z_MSC_RDPS_WindSpeed_IsbL-0005_RLatLon0.09_PT008H.grib2 2026-04-28 20:42 294K
20260428T18Z_MSC_RDPS_WindSpeed_IsbL-0010_RLatLon0.09_PT008H.grib2 2026-04-28 20:42 395K
20260428T18Z_MSC_RDPS_WindSpeed_IsbL-0020_RLatLon0.09_PT008H.grib2 2026-04-28 20:42 319K
20260428T18Z_MSC_RDPS_WindSpeed_IsbL-0030_RLatLon0.09_PT008H.grib2 2026-04-28 20:42 315K
20260428T18Z_MSC_RDPS_WindSpeed_IsbL-0050_RLatLon0.09_PT008H.grib2 2026-04-28 20:42 345K
20260428T18Z_MSC_RDPS_WindSpeed_IsbL-0100_RLatLon0.09_PT008H.grib2 2026-04-28 20:42 483K
20260428T18Z_MSC_RDPS_WindSpeed_IsbL-0150_RLatLon0.09_PT008H.grib2 2026-04-28 20:42 391K
20260428T18Z_MSC_RDPS_WindSpeed_IsbL-0175_RLatLon0.09_PT008H.grib2 2026-04-28 20:42 440K
20260428T18Z_MSC_RDPS_WindSpeed_IsbL-0200_RLatLon0.09_PT008H.grib2 2026-04-28 20:42 458K
20260428T18Z_MSC_RDPS_WindSpeed_IsbL-0225_RLatLon0.09_PT008H.grib2 2026-04-28 20:42 464K
20260428T18Z_MSC_RDPS_WindSpeed_IsbL-0250_RLatLon0.09_PT008H.grib2 2026-04-28 20:42 467K
20260428T18Z_MSC_RDPS_WindSpeed_IsbL-0275_RLatLon0.09_PT008H.grib2 2026-04-28 20:42 486K
20260428T18Z_MSC_RDPS_WindSpeed_IsbL-0300_RLatLon0.09_PT008H.grib2 2026-04-28 20:42 484K
20260428T18Z_MSC_RDPS_WindSpeed_IsbL-0350_RLatLon0.09_PT008H.grib2 2026-04-28 20:42 492K
20260428T18Z_MSC_RDPS_WindSpeed_IsbL-0400_RLatLon0.09_PT008H.grib2 2026-04-28 20:42 490K
20260428T18Z_MSC_RDPS_WindSpeed_IsbL-0450_RLatLon0.09_PT008H.grib2 2026-04-28 20:42 472K
20260428T18Z_MSC_RDPS_WindSpeed_IsbL-0500_RLatLon0.09_PT008H.grib2 2026-04-28 20:42 470K
20260428T18Z_MSC_RDPS_WindSpeed_IsbL-0550_RLatLon0.09_PT008H.grib2 2026-04-28 20:42 588K
20260428T18Z_MSC_RDPS_WindSpeed_IsbL-0600_RLatLon0.09_PT008H.grib2 2026-04-28 20:42 596K
20260428T18Z_MSC_RDPS_WindSpeed_IsbL-0650_RLatLon0.09_PT008H.grib2 2026-04-28 20:42 615K
20260428T18Z_MSC_RDPS_WindSpeed_IsbL-0700_RLatLon0.09_PT008H.grib2 2026-04-28 20:42 635K
20260428T18Z_MSC_RDPS_WindSpeed_IsbL-0750_RLatLon0.09_PT008H.grib2 2026-04-28 20:42 663K
20260428T18Z_MSC_RDPS_WindSpeed_IsbL-0800_RLatLon0.09_PT008H.grib2 2026-04-28 20:42 706K
20260428T18Z_MSC_RDPS_WindSpeed_IsbL-0850_RLatLon0.09_PT008H.grib2 2026-04-28 20:42 758K
20260428T18Z_MSC_RDPS_WindSpeed_IsbL-0875_RLatLon0.09_PT008H.grib2 2026-04-28 20:42 823K
20260428T18Z_MSC_RDPS_WindSpeed_IsbL-0900_RLatLon0.09_PT008H.grib2 2026-04-28 20:42 837K
20260428T18Z_MSC_RDPS_WindSpeed_IsbL-0925_RLatLon0.09_PT008H.grib2 2026-04-28 20:42 849K
20260428T18Z_MSC_RDPS_WindSpeed_IsbL-0950_RLatLon0.09_PT008H.grib2 2026-04-28 20:42 849K
20260428T18Z_MSC_RDPS_WindSpeed_IsbL-0970_RLatLon0.09_PT008H.grib2 2026-04-28 20:42 848K
20260428T18Z_MSC_RDPS_WindSpeed_IsbL-0985_RLatLon0.09_PT008H.grib2 2026-04-28 20:42 844K
20260428T18Z_MSC_RDPS_WindSpeed_IsbL-1000_RLatLon0.09_PT008H.grib2 2026-04-28 20:42 836K
20260428T18Z_MSC_RDPS_WindSpeed_IsbL-1015_RLatLon0.09_PT008H.grib2 2026-04-28 20:42 825K
20260428T18Z_MSC_RDPS_WindU_AGL-10m_RLatLon0.09_PT008H.grib2 2026-04-28 20:42 423K
20260428T18Z_MSC_RDPS_WindU_AGL-120m_RLatLon0.09_PT008H.grib2 2026-04-28 20:42 411K
20260428T18Z_MSC_RDPS_WindU_AGL-40m_RLatLon0.09_PT008H.grib2 2026-04-28 20:42 414K
20260428T18Z_MSC_RDPS_WindU_AGL-80m_RLatLon0.09_PT008H.grib2 2026-04-28 20:42 413K
20260428T18Z_MSC_RDPS_WindU_IsbL-0001_RLatLon0.09_PT008H.grib2 2026-04-28 20:42 292K
20260428T18Z_MSC_RDPS_WindU_IsbL-0005_RLatLon0.09_PT008H.grib2 2026-04-28 20:42 329K
20260428T18Z_MSC_RDPS_WindU_IsbL-0010_RLatLon0.09_PT008H.grib2 2026-04-28 20:42 293K
20260428T18Z_MSC_RDPS_WindU_IsbL-0020_RLatLon0.09_PT008H.grib2 2026-04-28 20:42 348K
20260428T18Z_MSC_RDPS_WindU_IsbL-0030_RLatLon0.09_PT008H.grib2 2026-04-28 20:42 346K
20260428T18Z_MSC_RDPS_WindU_IsbL-0050_RLatLon0.09_PT008H.grib2 2026-04-28 20:42 373K
20260428T18Z_MSC_RDPS_WindU_IsbL-0100_RLatLon0.09_PT008H.grib2 2026-04-28 20:42 342K
20260428T18Z_MSC_RDPS_WindU_IsbL-0150_RLatLon0.09_PT008H.grib2 2026-04-28 20:42 408K
20260428T18Z_MSC_RDPS_WindU_IsbL-0175_RLatLon0.09_PT008H.grib2 2026-04-28 20:42 433K
20260428T18Z_MSC_RDPS_WindU_IsbL-0200_RLatLon0.09_PT008H.grib2 2026-04-28 20:42 349K
20260428T18Z_MSC_RDPS_WindU_IsbL-0225_RLatLon0.09_PT008H.grib2 2026-04-28 20:42 353K
20260428T18Z_MSC_RDPS_WindU_IsbL-0250_RLatLon0.09_PT008H.grib2 2026-04-28 20:42 355K
20260428T18Z_MSC_RDPS_WindU_IsbL-0275_RLatLon0.09_PT008H.grib2 2026-04-28 20:42 371K
20260428T18Z_MSC_RDPS_WindU_IsbL-0300_RLatLon0.09_PT008H.grib2 2026-04-28 20:42 367K
20260428T18Z_MSC_RDPS_WindU_IsbL-0350_RLatLon0.09_PT008H.grib2 2026-04-28 20:42 478K
20260428T18Z_MSC_RDPS_WindU_IsbL-0400_RLatLon0.09_PT008H.grib2 2026-04-28 20:42 476K
20260428T18Z_MSC_RDPS_WindU_IsbL-0450_RLatLon0.09_PT008H.grib2 2026-04-28 20:42 476K
20260428T18Z_MSC_RDPS_WindU_IsbL-0500_RLatLon0.09_PT008H.grib2 2026-04-28 20:42 476K
20260428T18Z_MSC_RDPS_WindU_IsbL-0550_RLatLon0.09_PT008H.grib2 2026-04-28 20:42 459K
20260428T18Z_MSC_RDPS_WindU_IsbL-0600_RLatLon0.09_PT008H.grib2 2026-04-28 20:42 467K
20260428T18Z_MSC_RDPS_WindU_IsbL-0650_RLatLon0.09_PT008H.grib2 2026-04-28 20:42 484K
20260428T18Z_MSC_RDPS_WindU_IsbL-0700_RLatLon0.09_PT008H.grib2 2026-04-28 20:42 503K
20260428T18Z_MSC_RDPS_WindU_IsbL-0750_RLatLon0.09_PT008H.grib2 2026-04-28 20:42 529K
20260428T18Z_MSC_RDPS_WindU_IsbL-0800_RLatLon0.09_PT008H.grib2 2026-04-28 20:42 567K
20260428T18Z_MSC_RDPS_WindU_IsbL-0850_RLatLon0.09_PT008H.grib2 2026-04-28 20:42 615K
20260428T18Z_MSC_RDPS_WindU_IsbL-0875_RLatLon0.09_PT008H.grib2 2026-04-28 20:42 630K
20260428T18Z_MSC_RDPS_WindU_IsbL-0900_RLatLon0.09_PT008H.grib2 2026-04-28 20:42 640K
20260428T18Z_MSC_RDPS_WindU_IsbL-0925_RLatLon0.09_PT008H.grib2 2026-04-28 20:42 647K
20260428T18Z_MSC_RDPS_WindU_IsbL-0950_RLatLon0.09_PT008H.grib2 2026-04-28 20:42 643K
20260428T18Z_MSC_RDPS_WindU_IsbL-0970_RLatLon0.09_PT008H.grib2 2026-04-28 20:42 643K
20260428T18Z_MSC_RDPS_WindU_IsbL-0985_RLatLon0.09_PT008H.grib2 2026-04-28 20:42 639K
20260428T18Z_MSC_RDPS_WindU_IsbL-1000_RLatLon0.09_PT008H.grib2 2026-04-28 20:42 634K
20260428T18Z_MSC_RDPS_WindU_IsbL-1015_RLatLon0.09_PT008H.grib2 2026-04-28 20:42 763K
20260428T18Z_MSC_RDPS_WindV_AGL-10m_RLatLon0.09_PT008H.grib2 2026-04-28 20:42 425K
20260428T18Z_MSC_RDPS_WindV_AGL-120m_RLatLon0.09_PT008H.grib2 2026-04-28 20:42 526K
20260428T18Z_MSC_RDPS_WindV_AGL-40m_RLatLon0.09_PT008H.grib2 2026-04-28 20:42 529K
20260428T18Z_MSC_RDPS_WindV_AGL-80m_RLatLon0.09_PT008H.grib2 2026-04-28 20:42 527K
20260428T18Z_MSC_RDPS_WindV_IsbL-0001_RLatLon0.09_PT008H.grib2 2026-04-28 20:42 243K
20260428T18Z_MSC_RDPS_WindV_IsbL-0005_RLatLon0.09_PT008H.grib2 2026-04-28 20:42 285K
20260428T18Z_MSC_RDPS_WindV_IsbL-0010_RLatLon0.09_PT008H.grib2 2026-04-28 20:42 294K
20260428T18Z_MSC_RDPS_WindV_IsbL-0020_RLatLon0.09_PT008H.grib2 2026-04-28 20:42 310K
20260428T18Z_MSC_RDPS_WindV_IsbL-0030_RLatLon0.09_PT008H.grib2 2026-04-28 20:42 309K
20260428T18Z_MSC_RDPS_WindV_IsbL-0050_RLatLon0.09_PT008H.grib2 2026-04-28 20:42 338K
20260428T18Z_MSC_RDPS_WindV_IsbL-0100_RLatLon0.09_PT008H.grib2 2026-04-28 20:42 432K
20260428T18Z_MSC_RDPS_WindV_IsbL-0150_RLatLon0.09_PT008H.grib2 2026-04-28 20:42 404K
20260428T18Z_MSC_RDPS_WindV_IsbL-0175_RLatLon0.09_PT008H.grib2 2026-04-28 20:42 432K
20260428T18Z_MSC_RDPS_WindV_IsbL-0200_RLatLon0.09_PT008H.grib2 2026-04-28 20:42 348K
20260428T18Z_MSC_RDPS_WindV_IsbL-0225_RLatLon0.09_PT008H.grib2 2026-04-28 20:42 351K
20260428T18Z_MSC_RDPS_WindV_IsbL-0250_RLatLon0.09_PT008H.grib2 2026-04-28 20:42 377K
20260428T18Z_MSC_RDPS_WindV_IsbL-0275_RLatLon0.09_PT008H.grib2 2026-04-28 20:42 391K
20260428T18Z_MSC_RDPS_WindV_IsbL-0300_RLatLon0.09_PT008H.grib2 2026-04-28 20:42 389K
20260428T18Z_MSC_RDPS_WindV_IsbL-0350_RLatLon0.09_PT008H.grib2 2026-04-28 20:42 372K
20260428T18Z_MSC_RDPS_WindV_IsbL-0400_RLatLon0.09_PT008H.grib2 2026-04-28 20:42 372K
20260428T18Z_MSC_RDPS_WindV_IsbL-0450_RLatLon0.09_PT008H.grib2 2026-04-28 20:42 372K
20260428T18Z_MSC_RDPS_WindV_IsbL-0500_RLatLon0.09_PT008H.grib2 2026-04-28 20:42 474K
20260428T18Z_MSC_RDPS_WindV_IsbL-0550_RLatLon0.09_PT008H.grib2 2026-04-28 20:42 475K
20260428T18Z_MSC_RDPS_WindV_IsbL-0600_RLatLon0.09_PT008H.grib2 2026-04-28 20:42 482K
20260428T18Z_MSC_RDPS_WindV_IsbL-0650_RLatLon0.09_PT008H.grib2 2026-04-28 20:42 498K
20260428T18Z_MSC_RDPS_WindV_IsbL-0700_RLatLon0.09_PT008H.grib2 2026-04-28 20:42 516K
20260428T18Z_MSC_RDPS_WindV_IsbL-0750_RLatLon0.09_PT008H.grib2 2026-04-28 20:42 539K
20260428T18Z_MSC_RDPS_WindV_IsbL-0800_RLatLon0.09_PT008H.grib2 2026-04-28 20:42 575K
20260428T18Z_MSC_RDPS_WindV_IsbL-0850_RLatLon0.09_PT008H.grib2 2026-04-28 20:42 619K
20260428T18Z_MSC_RDPS_WindV_IsbL-0875_RLatLon0.09_PT008H.grib2 2026-04-28 20:42 635K
20260428T18Z_MSC_RDPS_WindV_IsbL-0900_RLatLon0.09_PT008H.grib2 2026-04-28 20:42 646K
20260428T18Z_MSC_RDPS_WindV_IsbL-0925_RLatLon0.09_PT008H.grib2 2026-04-28 20:42 645K
20260428T18Z_MSC_RDPS_WindV_IsbL-0950_RLatLon0.09_PT008H.grib2 2026-04-28 20:42 645K
20260428T18Z_MSC_RDPS_WindV_IsbL-0970_RLatLon0.09_PT008H.grib2 2026-04-28 20:42 646K
20260428T18Z_MSC_RDPS_WindV_IsbL-0985_RLatLon0.09_PT008H.grib2 2026-04-28 20:42 779K
20260428T18Z_MSC_RDPS_WindV_IsbL-1000_RLatLon0.09_PT008H.grib2 2026-04-28 20:42 772K
20260428T18Z_MSC_RDPS_WindV_IsbL-1015_RLatLon0.09_PT008H.grib2 2026-04-28 20:42 811K